When you browse on this site, cookies collect data to enhance your experience and personalize the content and advertising you see.
Visit our Privacy Policy to learn more. By continuing to use the site, you agree to this use of cookies and data.
  • In Austria
  • List of Countries
  • For 7 days
  • Water Temperature
  • Satellite Maps
  • Weather Map
  • News
  • Weather Widgets
  • user-avatar
    Login

    Hourly Weather State College

    Today, 19 April, Friday

    Time Temperature Precipitation Wind Pressure Humidity
    00:00 +17°C° 0 mm 3 mps 724 mmHg 78%
    01:00 +17°C° 0 mm 3 mps 724 mmHg 79%
    02:00 +16°C° 0 mm 3 mps 724 mmHg 83%
    03:00 +16°C° 0 mm 3 mps 723 mmHg 87%
    04:00 +16°C° 0 mm 3 mps 723 mmHg 91%
    05:00 +15°C° 0 mm 4 mps 723 mmHg 90%
    06:00 +17°C° 0 mm 4 mps 723 mmHg 89%
    07:00 +16°C° 0 mm 5 mps 723 mmHg 88%
    08:00 +17°C° 0 mm 5 mps 723 mmHg 84%
    09:00 +19°C° 0 mm 6 mps 722 mmHg 80%
    10:00 +20°C° 0 mm 6 mps 722 mmHg 76%
    11:00 +20°C° 0.8 mm 6 mps 722 mmHg 81%
    12:00 +19°C° 0.8 mm 6 mps 721 mmHg 85%
    13:00 +19°C° 0.8 mm 6 mps 721 mmHg 90%
    14:00 +20°C° 1.1 mm 6 mps 720 mmHg 89%
    15:00 +20°C° 1.1 mm 6 mps 720 mmHg 87%
    16:00 +21°C° 1.1 mm 6 mps 719 mmHg 86%
    17:00 +20°C° 0.1 mm 5 mps 719 mmHg 87%
    18:00 +19°C° 0.1 mm 4 mps 719 mmHg 88%
    19:00 +18°C° 0.1 mm 4 mps 719 mmHg 90%
    20:00 +18°C° 0.7 mm 3 mps 719 mmHg 90%
    21:00 +17°C° 0.7 mm 3 mps 720 mmHg 90%
    22:00 +16°C° 0.7 mm 3 mps 720 mmHg 91%
    23:00 +16°C° 2.4 mm 2 mps 719 mmHg 92%

    Tomorrow, 20 April, Saturday

    Time Temperature Precipitation Wind Pressure Humidity
    00:00 +15°C° 2.4 mm 2 mps 719 mmHg 94%
    01:00 +14°C° 2.4 mm 2 mps 719 mmHg 95%
    02:00 +15°C° 0.3 mm 2 mps 718 mmHg 96%
    03:00 +16°C° 0.3 mm 2 mps 718 mmHg 97%
    04:00 +17°C° 0.3 mm 3 mps 717 mmHg 98%
    05:00 +17°C° 0.5 mm 4 mps 717 mmHg 96%
    06:00 +17°C° 0.5 mm 4 mps 717 mmHg 94%
    07:00 +16°C° 0.5 mm 5 mps 717 mmHg 93%
    08:00 +17°C° 0.1 mm 6 mps 717 mmHg 82%
    09:00 +17°C° 0.1 mm 7 mps 718 mmHg 71%
    10:00 +17°C° 0.1 mm 8 mps 718 mmHg 60%
    11:00 +17°C° 0 mm 8 mps 719 mmHg 59%
    12:00 +16°C° 0 mm 8 mps 719 mmHg 58%
    13:00 +16°C° 0 mm 8 mps 719 mmHg 57%
    14:00 +15°C° 0 mm 7 mps 720 mmHg 60%
    15:00 +14°C° 0 mm 6 mps 720 mmHg 63%
    16:00 +13°C° 0 mm 6 mps 720 mmHg 66%
    17:00 +12°C° 0 mm 5 mps 721 mmHg 68%
    18:00 +12°C° 0 mm 4 mps 722 mmHg 71%
    19:00 +11°C° 0 mm 3 mps 723 mmHg 74%
    20:00 +10°C° 0 mm 3 mps 723 mmHg 77%
    21:00 +9°C° 0 mm 3 mps 724 mmHg 79%
    22:00 +9°C° 0 mm 3 mps 724 mmHg 82%
    23:00 +8°C° 0 mm 2 mps 724 mmHg 83%

    Day after tomorrow, 21 April, Sunday

    Time Temperature Precipitation Wind Pressure Humidity
    00:00 +8°C° 0 mm 2 mps 724 mmHg 84%
    01:00 +7°C° 0 mm 2 mps 724 mmHg 86%
    02:00 +7°C° 0 mm 2 mps 725 mmHg 87%
    03:00 +7°C° 0 mm 2 mps 725 mmHg 88%
    04:00 +7°C° 0 mm 2 mps 725 mmHg 89%
    05:00 +8°C° 0.1 mm 2 mps 726 mmHg 89%
    06:00 +8°C° 0.1 mm 2 mps 726 mmHg 89%
    07:00 +8°C° 0.1 mm 2 mps 727 mmHg 89%
    08:00 +9°C° 0.3 mm 2 mps 727 mmHg 89%
    09:00 +9°C° 0.3 mm 2 mps 727 mmHg 89%
    10:00 +9°C° 0.3 mm 2 mps 728 mmHg 90%
    11:00 +11°C° 0.2 mm 1 mps 728 mmHg 87%
    12:00 +12°C° 0.2 mm 1 mps 729 mmHg 84%
    13:00 +12°C° 0.2 mm 1 mps 729 mmHg 81%
    14:00 +13°C° 0.1 mm 1 mps 729 mmHg 77%
    15:00 +14°C° 0.1 mm 1 mps 730 mmHg 73%
    16:00 +15°C° 0.1 mm 1 mps 730 mmHg 69%
    17:00 +14°C° 0.2 mm 1 mps 730 mmHg 76%
    18:00 +11°C° 0.2 mm 0 mps 731 mmHg 82%
    19:00 +10°C° 0.2 mm 0 mps 731 mmHg 89%
    20:00 +9°C° 0 mm 0 mps 732 mmHg 91%
    21:00 +8°C° 0 mm 0 mps 732 mmHg 92%
    22:00 +8°C° 0 mm 0 mps 733 mmHg 94%
    23:00 +7°C° 0 mm 0 mps 733 mmHg 95%

    22 April, Monday

    Time Temperature Precipitation Wind Pressure Humidity
    00:00 +7°C° 0 mm 0 mps 733 mmHg 95%
    01:00 +7°C° 0 mm 0 mps 733 mmHg 95%
    02:00 +7°C° 0 mm 0 mps 733 mmHg 96%
    03:00 +6°C° 0 mm 0 mps 733 mmHg 96%
    04:00 +6°C° 0 mm 0 mps 733 mmHg 96%
    05:00 +7°C° 0 mm 0 mps 734 mmHg 94%
    06:00 +8°C° 0 mm 0 mps 734 mmHg 93%
    07:00 +9°C° 0 mm 0 mps 735 mmHg 91%
    08:00 +12°C° 0 mm 0 mps 735 mmHg 82%
    09:00 +15°C° 0 mm 0 mps 735 mmHg 73%
    10:00 +19°C° 0 mm 1 mps 735 mmHg 64%
    11:00 +20°C° 0 mm 1 mps 735 mmHg 59%
    12:00 +21°C° 0 mm 1 mps 734 mmHg 54%
    13:00 +22°C° 0 mm 1 mps 734 mmHg 49%
    14:00 +22°C° 0 mm 1 mps 734 mmHg 50%
    15:00 +21°C° 0 mm 2 mps 733 mmHg 51%
    16:00 +21°C° 0 mm 2 mps 733 mmHg 53%
    17:00 +19°C° 0 mm 2 mps 733 mmHg 64%
    18:00 +17°C° 0 mm 2 mps 733 mmHg 75%
    19:00 +16°C° 0 mm 1 mps 733 mmHg 87%
    20:00 +15°C° 0.2 mm 1 mps 733 mmHg 90%
    21:00 +15°C° 0.2 mm 1 mps 733 mmHg 94%
    22:00 +14°C° 0.2 mm 1 mps 733 mmHg 97%
    23:00 +14°C° 0.3 mm 1 mps 733 mmHg 97%

    23 April, Tuesday

    Time Temperature Precipitation Wind Pressure Humidity
    00:00 +14°C° 0.3 mm 1 mps 733 mmHg 98%
    01:00 +14°C° 0.3 mm 1 mps 733 mmHg 98%
    02:00 +14°C° 0 mm 1 mps 733 mmHg 98%
    03:00 +13°C° 0 mm 1 mps 733 mmHg 98%
    04:00 +13°C° 0 mm 1 mps 733 mmHg 98%
    05:00 +14°C° 0 mm 1 mps 733 mmHg 96%
    06:00 +14°C° 0 mm 2 mps 733 mmHg 94%
    07:00 +15°C° 0 mm 2 mps 734 mmHg 92%
    08:00 +15°C° 0 mm 2 mps 734 mmHg 90%
    09:00 +16°C° 0 mm 2 mps 734 mmHg 88%
    10:00 +16°C° 0 mm 2 mps 734 mmHg 86%
    11:00 +16°C° 0 mm 2 mps 734 mmHg 84%
    12:00 +16°C° 0 mm 2 mps 734 mmHg 83%
    13:00 +16°C° 0 mm 2 mps 734 mmHg 82%
    14:00 +16°C° 0 mm 2 mps 734 mmHg 81%
    15:00 +16°C° 0 mm 2 mps 734 mmHg 80%
    16:00 +15°C° 0 mm 2 mps 734 mmHg 79%
    17:00 +15°C° 0 mm 2 mps 734 mmHg 80%
    18:00 +14°C° 0 mm 2 mps 734 mmHg 82%
    19:00 +13°C° 0 mm 1 mps 735 mmHg 83%
    20:00 +12°C° 0 mm 2 mps 735 mmHg 82%
    21:00 +10°C° 0 mm 2 mps 735 mmHg 82%
    22:00 +9°C° 0 mm 2 mps 735 mmHg 81%
    23:00 +8°C° 0 mm 2 mps 735 mmHg 79%

    24 April, Wednesday

    Time Temperature Precipitation Wind Pressure Humidity
    00:00 +8°C° 0 mm 1 mps 735 mmHg 76%
    01:00 +7°C° 0 mm 1 mps 735 mmHg 74%
    02:00 +6°C° 0 mm 1 mps 735 mmHg 73%
    03:00 +6°C° 0 mm 1 mps 735 mmHg 72%
    04:00 +5°C° 0 mm 1 mps 736 mmHg 71%
    05:00 +6°C° 0 mm 1 mps 736 mmHg 67%
    06:00 +6°C° 0 mm 2 mps 736 mmHg 64%
    07:00 +7°C° 0 mm 2 mps 736 mmHg 61%
    08:00 +9°C° 0 mm 2 mps 736 mmHg 54%
    09:00 +12°C° 0 mm 2 mps 736 mmHg 47%
    10:00 +15°C° 0 mm 2 mps 736 mmHg 40%
    11:00 +16°C° 0 mm 2 mps 736 mmHg 39%
    12:00 +17°C° 0 mm 2 mps 735 mmHg 38%
    13:00 +18°C° 0 mm 2 mps 735 mmHg 37%
    14:00 +18°C° 0 mm 2 mps 735 mmHg 40%
    15:00 +18°C° 0 mm 2 mps 734 mmHg 43%
    16:00 +18°C° 0 mm 3 mps 734 mmHg 46%
    17:00 +16°C° 0 mm 2 mps 734 mmHg 55%
    18:00 +15°C° 0 mm 2 mps 734 mmHg 65%
    19:00 +13°C° 0 mm 2 mps 733 mmHg 74%
    20:00 +12°C° 0 mm 2 mps 733 mmHg 76%
    21:00 +11°C° 0 mm 3 mps 733 mmHg 78%
    22:00 +10°C° 0 mm 3 mps 733 mmHg 80%
    23:00 +10°C° 0 mm 3 mps 733 mmHg 81%
    Show more